Time,TemperatureF,DewpointF,PressureIn,WindDirection,WindDirectionDegrees,WindSpeedMPH,WindSpeedGustMPH,Humidity,HourlyPrecipIn,Conditions,Clouds,dailyrainin,SolarRadiationWatts/m^2,SoftwareType,DateUTC
2013-07-28 00:02:00,64.1,55.6,29.78,East,94,4.0,9.0,74,0.00,,,0.00,0,WeatherTracker,2013-07-28 07:02:00,
2013-07-28 00:07:00,63.8,55.3,29.78,ESE,102,7.0,9.0,74,0.00,,,0.00,0,WeatherTracker,2013-07-28 07:07:00,
2013-07-28 00:12:00,63.7,55.3,29.78,East,96,5.0,9.0,74,0.00,,,0.00,0,WeatherTracker,2013-07-28 07:12:00,
2013-07-28 00:17:00,63.5,55.8,29.78,East,96,6.0,8.0,76,0.00,,,0.00,0,WeatherTracker,2013-07-28 07:17:00,
2013-07-28 00:22:00,63.4,55.3,29.78,East,98,4.0,8.0,75,0.00,,,0.00,0,WeatherTracker,2013-07-28 07:22:00,
2013-07-28 00:27:00,63.1,55.0,29.78,East,95,5.0,9.0,75,0.00,,,0.00,0,WeatherTracker,2013-07-28 07:27:00,
2013-07-28 00:32:00,63.0,55.3,29.78,East,86,3.0,9.0,76,0.00,,,0.00,0,WeatherTracker,2013-07-28 07:32:00,
2013-07-28 00:37:00,62.9,55.2,29.77,East,97,8.0,8.0,76,0.00,,,0.00,0,WeatherTracker,2013-07-28 07:37:00,
2013-07-28 00:42:00,62.7,55.0,29.77,East,95,1.0,9.0,76,0.00,,,0.00,0,WeatherTracker,2013-07-28 07:42:00,
2013-07-28 00:47:00,62.6,54.9,29.77,East,94,5.0,9.0,76,0.00,,,0.00,0,WeatherTracker,2013-07-28 07:47:00,
2013-07-28 00:52:00,62.5,54.8,29.77,East,90,7.0,7.0,76,0.00,,,0.00,0,WeatherTracker,2013-07-28 07:52:00,
2013-07-28 00:57:00,62.5,54.8,29.77,East,90,5.0,8.0,76,0.00,,,0.00,0,WeatherTracker,2013-07-28 07:57:00,
2013-07-28 01:03:00,62.3,54.6,29.77,East,96,4.0,8.0,76,0.00,,,0.00,0,WeatherTracker,2013-07-28 08:03:00,
2013-07-28 01:08:00,62.1,54.8,29.77,East,99,6.0,7.0,77,0.00,,,0.00,0,WeatherTracker,2013-07-28 08:08:00,
2013-07-28 01:13:00,62.1,54.4,29.77,ESE,103,4.0,9.0,76,0.00,,,0.00,0,WeatherTracker,2013-07-28 08:13:00,
2013-07-28 01:18:00,62.0,54.7,29.77,ENE,76,4.0,9.0,77,0.00,,,0.00,0,WeatherTracker,2013-07-28 08:18:00,
2013-07-28 01:23:00,61.8,54.5,29.77,East,84,1.0,9.0,77,0.00,,,0.00,0,WeatherTracker,2013-07-28 08:23:00,
2013-07-28 01:28:00,61.5,54.2,29.77,East,85,2.0,9.0,77,0.00,,,0.00,0,WeatherTracker,2013-07-28 08:28:00,
2013-07-28 01:33:00,61.4,54.5,29.77,East,94,4.0,7.0,78,0.00,,,0.00,0,WeatherTracker,2013-07-28 08:33:00,
2013-07-28 01:38:00,61.4,54.5,29.77,East,97,6.0,8.0,78,0.00,,,0.00,0,WeatherTracker,2013-07-28 08:38:00,
2013-07-28 01:43:00,61.2,54.3,29.77,East,98,4.0,8.0,78,0.00,,,0.00,0,WeatherTracker,2013-07-28 08:43:00,
2013-07-28 01:48:00,61.0,54.4,29.77,East,101,5.0,8.0,79,0.00,,,0.00,0,WeatherTracker,2013-07-28 08:48:00,
2013-07-28 01:53:00,61.0,54.4,29.77,East,90,5.0,8.0,79,0.00,,,0.00,0,WeatherTracker,2013-07-28 08:53:00,
2013-07-28 01:58:00,60.9,54.3,29.77,East,88,0.0,8.0,79,0.00,,,0.00,0,WeatherTracker,2013-07-28 08:58:00,
2013-07-28 02:04:00,60.6,54.4,29.77,East,92,0.0,7.0,80,0.00,,,0.00,0,WeatherTracker,2013-07-28 09:04:00,
2013-07-28 02:09:00,60.4,54.2,29.77,East,93,0.0,6.0,80,0.00,,,0.00,0,WeatherTracker,2013-07-28 09:09:00,
2013-07-28 02:14:00,60.3,54.1,29.77,East,93,0.0,6.0,80,0.00,,,0.00,0,WeatherTracker,2013-07-28 09:14:00,
2013-07-28 02:19:00,60.2,54.0,29.77,East,90,4.0,6.0,80,0.00,,,0.00,0,WeatherTracker,2013-07-28 09:19:00,
2013-07-28 02:24:00,60.2,54.0,29.77,East,90,0.0,6.0,80,0.00,,,0.00,0,WeatherTracker,2013-07-28 09:24:00,
2013-07-28 02:29:00,60.1,53.9,29.77,East,90,1.0,6.0,80,0.00,,,0.00,0,WeatherTracker,2013-07-28 09:29:00,
2013-07-28 02:34:00,60.0,53.8,29.77,East,88,0.0,6.0,80,0.00,,,0.00,0,WeatherTracker,2013-07-28 09:34:00,
2013-07-28 02:39:00,59.9,53.7,29.77,East,88,0.0,5.0,80,0.00,,,0.00,0,WeatherTracker,2013-07-28 09:39:00,
2013-07-28 02:44:00,59.8,53.6,29.77,East,86,1.0,5.0,80,0.00,,,0.00,0,WeatherTracker,2013-07-28 09:44:00,
2013-07-28 02:49:00,59.8,54.0,29.77,East,86,5.0,5.0,81,0.00,,,0.00,0,WeatherTracker,2013-07-28 09:49:00,
2013-07-28 02:54:00,59.6,53.8,29.77,East,86,3.0,5.0,81,0.00,,,0.00,0,WeatherTracker,2013-07-28 09:54:00,
2013-07-28 02:59:00,59.6,53.8,29.77,East,86,0.0,5.0,81,0.00,,,0.00,0,WeatherTracker,2013-07-28 09:59:00,
2013-07-28 03:04:00,59.5,53.7,29.77,East,86,3.0,5.0,81,0.00,,,0.00,0,WeatherTracker,2013-07-28 10:04:00,
2013-07-28 03:10:00,59.4,53.6,29.77,East,86,0.0,4.0,81,0.00,,,0.00,0,WeatherTracker,2013-07-28 10:10:00,
2013-07-28 03:15:00,59.3,53.5,29.76,East,86,2.0,4.0,81,0.00,,,0.00,0,WeatherTracker,2013-07-28 10:15:00,
2013-07-28 03:20:00,59.2,53.4,29.77,East,86,0.0,4.0,81,0.00,,,0.00,0,WeatherTracker,2013-07-28 10:20:00,
2013-07-28 03:25:00,59.1,53.3,29.77,East,86,0.0,4.0,81,0.00,,,0.00,0,WeatherTracker,2013-07-28 10:25:00,
2013-07-28 03:30:00,59.0,53.2,29.77,East,86,0.0,3.0,81,0.00,,,0.00,0,WeatherTracker,2013-07-28 10:30:00,
2013-07-28 03:35:00,59.0,53.2,29.76,East,86,0.0,5.0,81,0.00,,,0.00,0,WeatherTracker,2013-07-28 10:35:00,
2013-07-28 03:40:00,59.0,53.5,29.76,East,86,0.0,5.0,82,0.00,,,0.00,0,WeatherTracker,2013-07-28 10:40:00,
2013-07-28 03:45:00,59.0,53.5,29.76,East,86,0.0,3.0,82,0.00,,,0.00,0,WeatherTracker,2013-07-28 10:45:00,
2013-07-28 03:50:00,59.0,53.5,29.76,East,86,0.0,3.0,82,0.00,,,0.00,0,WeatherTracker,2013-07-28 10:50:00,
2013-07-28 03:55:00,59.0,53.5,29.76,East,86,0.0,0.0,82,0.00,,,0.00,0,WeatherTracker,2013-07-28 10:55:00,
2013-07-28 04:01:00,59.0,53.5,29.76,East,86,0.0,0.0,82,0.00,,,0.00,0,WeatherTracker,2013-07-28 11:01:00,
2013-07-28 04:06:00,59.0,53.5,29.76,East,86,0.0,4.0,82,0.00,,,0.00,0,WeatherTracker,2013-07-28 11:06:00,
2013-07-28 04:11:00,59.0,53.5,29.76,East,86,0.0,4.0,82,0.00,,,0.00,0,WeatherTracker,2013-07-28 11:11:00,
2013-07-28 04:16:00,58.8,53.3,29.76,East,86,0.0,0.0,82,0.00,,,0.00,0,WeatherTracker,2013-07-28 11:16:00,
2013-07-28 04:21:00,58.7,53.5,29.76,East,86,0.0,0.0,83,0.00,,,0.00,0,WeatherTracker,2013-07-28 11:21:00,
2013-07-28 04:26:00,58.7,53.5,29.76,East,86,0.0,0.0,83,0.00,,,0.00,0,WeatherTracker,2013-07-28 11:26:00,
2013-07-28 04:31:00,58.6,53.1,29.76,East,86,0.0,3.0,82,0.00,,,0.00,0,WeatherTracker,2013-07-28 11:31:00,
2013-07-28 04:36:00,58.5,53.4,29.76,East,86,0.0,3.0,83,0.00,,,0.00,0,WeatherTracker,2013-07-28 11:36:00,
2013-07-28 04:41:00,58.4,53.3,29.76,East,86,0.0,3.0,83,0.00,,,0.00,0,WeatherTracker,2013-07-28 11:41:00,
2013-07-28 04:46:00,58.4,53.3,29.76,East,86,0.0,0.0,83,0.00,,,0.00,0,WeatherTracker,2013-07-28 11:46:00,
2013-07-28 04:51:00,58.3,53.2,29.76,East,86,0.0,0.0,83,0.00,,,0.00,0,WeatherTracker,2013-07-28 11:51:00,
2013-07-28 04:56:00,58.2,53.1,29.77,East,86,0.0,0.0,83,0.00,,,0.00,0,WeatherTracker,2013-07-28 11:56:00,
2013-07-28 05:01:00,58.2,53.1,29.76,East,86,0.0,0.0,83,0.00,,,0.00,0,WeatherTracker,2013-07-28 12:01:00,
2013-07-28 05:06:00,58.0,52.9,29.77,East,86,0.0,0.0,83,0.00,,,0.00,0,WeatherTracker,2013-07-28 12:06:00,
2013-07-28 05:11:00,57.9,52.8,29.77,East,86,0.0,0.0,83,0.00,,,0.00,0,WeatherTracker,2013-07-28 12:11:00,
2013-07-28 05:16:00,57.8,53.0,29.77,East,86,0.0,0.0,84,0.00,,,0.00,0,WeatherTracker,2013-07-28 12:16:00,
2013-07-28 05:21:00,57.7,52.9,29.77,East,86,0.0,0.0,84,0.00,,,0.00,0,WeatherTracker,2013-07-28 12:21:00,
2013-07-28 05:26:00,57.7,52.9,29.77,East,86,0.0,0.0,84,0.00,,,0.00,0,WeatherTracker,2013-07-28 12:26:00,
2013-07-28 05:32:00,57.6,52.8,29.77,East,86,0.0,0.0,84,0.00,,,0.00,0,WeatherTracker,2013-07-28 12:32:00,
2013-07-28 05:37:00,57.6,52.8,29.77,East,86,0.0,0.0,84,0.00,,,0.00,0,WeatherTracker,2013-07-28 12:37:00,
2013-07-28 05:42:00,57.5,52.7,29.77,East,86,0.0,0.0,84,0.00,,,0.00,0,WeatherTracker,2013-07-28 12:42:00,
2013-07-28 05:47:00,57.4,52.6,29.77,East,86,0.0,0.0,84,0.00,,,0.00,0,WeatherTracker,2013-07-28 12:47:00,
2013-07-28 05:52:00,57.3,52.8,29.77,East,86,0.0,0.0,85,0.00,,,0.00,0,WeatherTracker,2013-07-28 12:52:00,
2013-07-28 05:57:00,57.4,52.9,29.77,East,86,0.0,0.0,85,0.00,,,0.00,0,WeatherTracker,2013-07-28 12:57:00,
2013-07-28 06:02:00,57.4,52.9,29.77,East,86,0.0,0.0,85,0.00,,,0.00,0,WeatherTracker,2013-07-28 13:02:00,
2013-07-28 06:07:00,57.4,52.9,29.78,East,87,0.0,0.0,85,0.00,,,0.00,5,WeatherTracker,2013-07-28 13:07:00,
2013-07-28 06:12:00,57.3,52.8,29.78,East,87,0.0,0.0,85,0.00,,,0.00,7,WeatherTracker,2013-07-28 13:12:00,
2013-07-28 06:17:00,57.3,52.8,29.78,East,87,0.0,0.0,85,0.00,,,0.00,11,WeatherTracker,2013-07-28 13:17:00,
2013-07-28 06:22:00,57.3,52.8,29.78,NE,44,0.0,0.0,85,0.00,,,0.00,12,WeatherTracker,2013-07-28 13:22:00,
2013-07-28 06:27:00,57.4,52.9,29.79,NE,44,0.0,0.0,85,0.00,,,0.00,16,WeatherTracker,2013-07-28 13:27:00,
2013-07-28 06:32:00,57.5,53.0,29.79,NE,44,0.0,0.0,85,0.00,,,0.00,19,WeatherTracker,2013-07-28 13:32:00,
2013-07-28 06:37:00,57.5,53.0,29.79,NE,44,0.0,0.0,85,0.00,,,0.00,21,WeatherTracker,2013-07-28 13:37:00,
2013-07-28 06:42:00,57.5,53.0,29.79,NE,44,0.0,0.0,85,0.00,,,0.00,25,WeatherTracker,2013-07-28 13:42:00,
2013-07-28 06:47:00,57.6,53.1,29.79,NNE,28,0.0,0.0,85,0.00,,,0.00,28,WeatherTracker,2013-07-28 13:47:00,
2013-07-28 06:52:00,57.8,53.3,29.79,West,276,0.0,0.0,85,0.00,,,0.00,81,WeatherTracker,2013-07-28 13:52:00,
2013-07-28 06:57:00,58.1,53.6,29.79,West,276,0.0,0.0,85,0.00,,,0.00,95,WeatherTracker,2013-07-28 13:57:00,
2013-07-28 07:02:00,58.4,53.6,29.79,West,276,0.0,0.0,84,0.00,,,0.00,109,WeatherTracker,2013-07-28 14:02:00,
2013-07-28 07:07:00,58.8,54.0,29.80,West,276,0.0,0.0,84,0.00,,,0.00,121,WeatherTracker,2013-07-28 14:07:00,
2013-07-28 07:12:00,59.0,54.2,29.80,West,273,0.0,0.0,84,0.00,,,0.00,135,WeatherTracker,2013-07-28 14:12:00,
2013-07-28 07:17:00,59.2,54.0,29.80,West,273,0.0,0.0,83,0.00,,,0.00,153,WeatherTracker,2013-07-28 14:17:00,
2013-07-28 07:22:00,59.7,54.5,29.80,West,273,0.0,0.0,83,0.00,,,0.00,171,WeatherTracker,2013-07-28 14:22:00,
2013-07-28 07:27:00,59.9,54.4,29.80,NNW,338,0.0,0.0,82,0.00,,,0.00,188,WeatherTracker,2013-07-28 14:27:00,
2013-07-28 07:32:00,60.3,54.8,29.80,East,83,0.0,0.0,82,0.00,,,0.00,202,WeatherTracker,2013-07-28 14:32:00,
2013-07-28 07:37:00,60.7,54.8,29.80,East,83,0.0,0.0,81,0.00,,,0.00,216,WeatherTracker,2013-07-28 14:37:00,
2013-07-28 07:42:00,61.1,55.2,29.81,East,83,0.0,0.0,81,0.00,,,0.00,232,WeatherTracker,2013-07-28 14:42:00,
2013-07-28 07:47:00,61.4,55.5,29.81,East,83,0.0,0.0,81,0.00,,,0.00,246,WeatherTracker,2013-07-28 14:47:00,
2013-07-28 07:52:00,61.8,55.6,29.81,SSE,167,0.0,0.0,80,0.00,,,0.00,258,WeatherTracker,2013-07-28 14:52:00,
2013-07-28 07:57:00,62.2,55.9,29.81,SSE,167,0.0,4.0,80,0.00,,,0.00,281,WeatherTracker,2013-07-28 14:57:00,
2013-07-28 08:03:00,62.8,56.2,29.81,WNW,286,0.0,4.0,79,0.00,,,0.00,295,WeatherTracker,2013-07-28 15:03:00,
2013-07-28 08:08:00,63.3,56.7,29.81,WNW,286,0.0,0.0,79,0.00,,,0.00,313,WeatherTracker,2013-07-28 15:08:00,
2013-07-28 08:13:00,63.6,56.6,29.81,WNW,285,2.0,0.0,78,0.00,,,0.00,330,WeatherTracker,2013-07-28 15:13:00,
2013-07-28 08:18:00,63.9,56.5,29.81,West,259,0.0,3.0,77,0.00,,,0.00,346,WeatherTracker,2013-07-28 15:18:00,
2013-07-28 08:24:00,64.4,57.0,29.82,West,259,0.0,3.0,77,0.00,,,0.00,367,WeatherTracker,2013-07-28 15:24:00,
2013-07-28 08:29:00,65.0,57.2,29.82,West,259,0.0,0.0,76,0.00,,,0.00,381,WeatherTracker,2013-07-28 15:29:00,
2013-07-28 08:34:00,65.7,57.6,29.82,WSW,249,0.0,0.0,75,0.00,,,0.00,399,WeatherTracker,2013-07-28 15:34:00,
2013-07-28 08:39:00,66.2,57.7,29.82,WSW,246,0.0,0.0,74,0.00,,,0.00,413,WeatherTracker,2013-07-28 15:39:00,
2013-07-28 08:44:00,66.7,57.8,29.82,WSW,246,0.0,1.0,73,0.00,,,0.00,429,WeatherTracker,2013-07-28 15:44:00,
2013-07-28 08:49:00,67.0,57.7,29.82,WSW,246,0.0,3.0,72,0.00,,,0.00,443,WeatherTracker,2013-07-28 15:49:00,
2013-07-28 08:54:00,67.2,57.9,29.82,WSW,242,2.0,3.0,72,0.00,,,0.00,459,WeatherTracker,2013-07-28 15:54:00,
2013-07-28 08:59:00,67.3,58.0,29.82,WSW,245,1.0,2.0,72,0.00,,,0.00,471,WeatherTracker,2013-07-28 15:59:00,
2013-07-28 09:04:00,67.6,58.2,29.82,WSW,244,0.0,4.0,72,0.00,,,0.00,489,WeatherTracker,2013-07-28 16:04:00,
2013-07-28 09:09:00,68.1,58.3,29.82,West,277,0.0,4.0,71,0.00,,,0.00,501,WeatherTracker,2013-07-28 16:09:00,
2013-07-28 09:14:00,68.7,58.5,29.81,West,277,0.0,2.0,70,0.00,,,0.00,515,WeatherTracker,2013-07-28 16:14:00,
2013-07-28 09:19:00,69.4,58.8,29.82,West,264,2.0,2.0,69,0.00,,,0.00,531,WeatherTracker,2013-07-28 16:19:00,
2013-07-28 09:24:00,69.5,58.9,29.82,West,263,0.0,5.0,69,0.00,,,0.00,545,WeatherTracker,2013-07-28 16:24:00,
2013-07-28 09:29:00,69.6,58.6,29.82,West,262,0.0,5.0,68,0.00,,,0.00,557,WeatherTracker,2013-07-28 16:29:00,
2013-07-28 09:34:00,69.5,58.5,29.82,WSW,253,0.0,4.0,68,0.00,,,0.00,570,WeatherTracker,2013-07-28 16:34:00,
2013-07-28 09:39:00,69.7,58.2,29.82,WSW,252,1.0,4.0,67,0.00,,,0.00,587,WeatherTracker,2013-07-28 16:39:00,
2013-07-28 09:44:00,70.0,58.5,29.81,West,263,0.0,3.0,67,0.00,,,0.00,601,WeatherTracker,2013-07-28 16:44:00,
2013-07-28 09:49:00,70.4,58.9,29.81,West,263,0.0,5.0,67,0.00,,,0.00,613,WeatherTracker,2013-07-28 16:49:00,
2013-07-28 09:54:00,71.3,59.8,29.82,West,265,0.0,5.0,67,0.00,,,0.00,626,WeatherTracker,2013-07-28 16:54:00,
2013-07-28 09:59:00,71.9,60.3,29.81,SSW,204,3.0,5.0,67,0.00,,,0.00,640,WeatherTracker,2013-07-28 16:59:00,
2013-07-28 10:04:00,72.2,60.2,29.81,SE,146,4.0,5.0,66,0.00,,,0.00,656,WeatherTracker,2013-07-28 17:04:00,
2013-07-28 10:09:00,72.5,60.1,29.81,SSE,157,4.0,6.0,65,0.00,,,0.00,666,WeatherTracker,2013-07-28 17:09:00,
2013-07-28 10:14:00,72.7,60.7,29.81,SSE,161,0.0,6.0,66,0.00,,,0.00,675,WeatherTracker,2013-07-28 17:14:00,
2013-07-28 10:19:00,73.0,60.1,29.81,SSE,162,0.0,5.0,64,0.00,,,0.00,691,WeatherTracker,2013-07-28 17:19:00,
2013-07-28 10:24:00,73.7,60.3,29.81,South,170,0.0,5.0,63,0.00,,,0.00,705,WeatherTracker,2013-07-28 17:24:00,
2013-07-28 10:30:00,74.4,61.0,29.81,South,174,2.0,6.0,63,0.00,,,0.00,715,WeatherTracker,2013-07-28 17:30:00,
2013-07-28 10:35:00,74.8,60.9,29.81,South,173,4.0,6.0,62,0.00,,,0.00,731,WeatherTracker,2013-07-28 17:35:00,
2013-07-28 10:40:00,74.8,60.4,29.82,South,184,4.0,7.0,61,0.00,,,0.00,744,WeatherTracker,2013-07-28 17:40:00,
2013-07-28 10:45:00,75.0,60.6,29.82,South,180,1.0,7.0,61,0.00,,,0.00,756,WeatherTracker,2013-07-28 17:45:00,
2013-07-28 10:50:00,75.3,61.4,29.82,South,180,0.0,5.0,62,0.00,,,0.00,766,WeatherTracker,2013-07-28 17:50:00,
2013-07-28 10:55:00,76.0,61.1,29.82,SSW,207,0.0,6.0,60,0.00,,,0.00,777,WeatherTracker,2013-07-28 17:55:00,
2013-07-28 11:00:00,76.6,61.7,29.82,SSW,207,2.0,6.0,60,0.00,,,0.00,784,WeatherTracker,2013-07-28 18:00:00,
2013-07-28 11:05:00,76.4,61.0,29.81,SW,214,2.0,7.0,59,0.00,,,0.00,795,WeatherTracker,2013-07-28 18:05:00,
2013-07-28 11:10:00,76.7,61.3,29.81,SW,214,0.0,7.0,59,0.00,,,0.00,805,WeatherTracker,2013-07-28 18:10:00,
2013-07-28 11:15:00,77.6,62.1,29.82,SW,214,0.0,2.0,59,0.00,,,0.00,816,WeatherTracker,2013-07-28 18:15:00,
2013-07-28 11:20:00,78.4,61.4,29.81,SSW,209,0.0,5.0,56,0.00,,,0.00,826,WeatherTracker,2013-07-28 18:20:00,
2013-07-28 11:25:00,78.8,62.8,29.81,SSW,208,0.0,5.0,58,0.00,,,0.00,833,WeatherTracker,2013-07-28 18:25:00,
2013-07-28 11:31:00,79.4,62.8,29.81,SSW,208,1.0,4.0,57,0.00,,,0.00,844,WeatherTracker,2013-07-28 18:31:00,
2013-07-28 11:36:00,80.0,61.8,29.81,SSW,211,2.0,5.0,54,0.00,,,0.00,849,WeatherTracker,2013-07-28 18:36:00,
2013-07-28 11:41:00,80.1,61.9,29.81,SSW,209,0.0,5.0,54,0.00,,,0.00,856,WeatherTracker,2013-07-28 18:41:00,
2013-07-28 11:46:00,80.1,61.9,29.81,SSW,209,0.0,4.0,54,0.00,,,0.00,861,WeatherTracker,2013-07-28 18:46:00,
2013-07-28 11:51:00,79.6,62.0,29.81,SSW,207,0.0,4.0,55,0.00,,,0.00,872,WeatherTracker,2013-07-28 18:51:00,
2013-07-28 11:56:00,79.7,62.1,29.81,SSW,207,0.0,4.0,55,0.00,,,0.00,877,WeatherTracker,2013-07-28 18:56:00,
2013-07-28 12:01:00,80.3,62.1,29.81,SSW,207,2.0,2.0,54,0.00,,,0.00,882,WeatherTracker,2013-07-28 19:01:00,
2013-07-28 12:06:00,80.9,62.1,29.80,SSW,207,0.0,5.0,53,0.00,,,0.00,886,WeatherTracker,2013-07-28 19:06:00,
2013-07-28 12:11:00,81.6,62.2,29.80,SSW,208,0.0,5.0,52,0.00,,,0.00,891,WeatherTracker,2013-07-28 19:11:00,
2013-07-28 12:16:00,82.3,63.4,29.80,SSW,203,1.0,3.0,53,0.00,,,0.00,896,WeatherTracker,2013-07-28 19:16:00,
2013-07-28 12:21:00,82.5,62.5,29.80,SSW,201,0.0,5.0,51,0.00,,,0.00,900,WeatherTracker,2013-07-28 19:21:00,
2013-07-28 12:26:00,82.6,63.2,29.80,SSW,199,0.0,5.0,52,0.00,,,0.00,902,WeatherTracker,2013-07-28 19:26:00,
2013-07-28 12:31:00,82.9,62.9,29.80,SSW,192,0.0,4.0,51,0.00,,,0.00,904,WeatherTracker,2013-07-28 19:31:00,
2013-07-28 12:36:00,83.2,64.3,29.79,South,186,3.0,5.0,53,0.00,,,0.00,909,WeatherTracker,2013-07-28 19:36:00,
2013-07-28 12:42:00,83.7,64.7,29.79,South,182,0.0,5.0,53,0.00,,,0.00,914,WeatherTracker,2013-07-28 19:42:00,
2013-07-28 12:47:00,83.8,63.1,29.79,South,181,1.0,5.0,50,0.00,,,0.00,912,WeatherTracker,2013-07-28 19:47:00,
2013-07-28 12:52:00,84.1,64.5,29.79,ESE,103,5.0,6.0,52,0.00,,,0.00,918,WeatherTracker,2013-07-28 19:52:00,
2013-07-28 12:57:00,84.5,64.9,29.79,ESE,116,7.0,8.0,52,0.00,,,0.00,918,WeatherTracker,2013-07-28 19:57:00,
2013-07-28 13:02:00,84.9,64.2,29.79,SSE,147,5.0,9.0,50,0.00,,,0.00,918,WeatherTracker,2013-07-28 20:02:00,
2013-07-28 13:07:00,85.2,65.0,29.79,ESE,109,6.0,9.0,51,0.00,,,0.00,919,WeatherTracker,2013-07-28 20:07:00,
2013-07-28 13:12:00,85.1,64.3,29.79,SSE,166,9.0,10.0,50,0.00,,,0.00,921,WeatherTracker,2013-07-28 20:12:00,
2013-07-28 13:17:00,84.5,64.4,29.78,ESE,102,9.0,11.0,51,0.00,,,0.00,923,WeatherTracker,2013-07-28 20:17:00,
2013-07-28 13:22:00,84.3,63.6,29.78,SE,128,6.0,14.0,50,0.00,,,0.00,923,WeatherTracker,2013-07-28 20:22:00,
2013-07-28 13:27:00,84.1,62.8,29.78,ESE,115,5.0,14.0,49,0.00,,,0.00,921,WeatherTracker,2013-07-28 20:27:00,
2013-07-28 13:32:00,84.3,63.0,29.78,SE,133,1.0,12.0,49,0.00,,,0.00,921,WeatherTracker,2013-07-28 20:32:00,
2013-07-28 13:37:00,84.5,63.2,29.78,East,96,8.0,14.0,49,0.00,,,0.00,918,WeatherTracker,2013-07-28 20:37:00,
2013-07-28 13:42:00,84.6,63.3,29.78,ESE,120,5.0,14.0,49,0.00,,,0.00,919,WeatherTracker,2013-07-28 20:42:00,
2013-07-28 13:47:00,84.6,63.3,29.78,South,174,6.0,14.0,49,0.00,,,0.00,914,WeatherTracker,2013-07-28 20:47:00,
2013-07-28 13:52:00,84.8,63.5,29.77,SW,216,5.0,13.0,49,0.00,,,0.00,909,WeatherTracker,2013-07-28 20:52:00,
2013-07-28 13:57:00,85.1,63.8,29.77,SSE,163,7.0,12.0,49,0.00,,,0.00,909,WeatherTracker,2013-07-28 20:57:00,
2013-07-28 14:02:00,85.6,65.4,29.77,SSE,165,4.0,8.0,51,0.00,,,0.00,904,WeatherTracker,2013-07-28 21:02:00,
2013-07-28 14:07:00,86.2,64.2,29.77,SE,142,7.0,8.0,48,0.00,,,0.00,904,WeatherTracker,2013-07-28 21:07:00,
2013-07-28 14:13:00,86.4,64.4,29.77,SSE,165,5.0,11.0,48,0.00,,,0.00,896,WeatherTracker,2013-07-28 21:13:00,
2013-07-28 14:18:00,86.6,64.5,29.77,South,175,0.0,11.0,48,0.00,,,0.00,893,WeatherTracker,2013-07-28 21:18:00,
2013-07-28 14:23:00,86.5,63.8,29.76,SSE,155,8.0,11.0,47,0.00,,,0.00,888,WeatherTracker,2013-07-28 21:23:00,
2013-07-28 14:28:00,86.3,63.0,29.76,ESE,123,5.0,11.0,46,0.00,,,0.00,882,WeatherTracker,2013-07-28 21:28:00,
2013-07-28 14:33:00,86.5,62.6,29.76,ESE,123,2.0,13.0,45,0.00,,,0.00,874,WeatherTracker,2013-07-28 21:33:00,
2013-07-28 14:38:00,86.8,63.5,29.76,SSE,156,6.0,13.0,46,0.00,,,0.00,868,WeatherTracker,2013-07-28 21:38:00,
2013-07-28 14:43:00,86.7,63.4,29.75,SE,141,5.0,12.0,46,0.00,,,0.00,860,WeatherTracker,2013-07-28 21:43:00,
2013-07-28 14:48:00,86.5,63.8,29.75,South,173,5.0,10.0,47,0.00,,,0.00,856,WeatherTracker,2013-07-28 21:48:00,
2013-07-28 14:53:00,86.5,62.6,29.75,ESE,123,6.0,9.0,45,0.00,,,0.00,846,WeatherTracker,2013-07-28 21:53:00,
2013-07-28 14:58:00,86.6,63.3,29.75,SE,135,10.0,11.0,46,0.00,,,0.00,840,WeatherTracker,2013-07-28 21:58:00,
2013-07-28 15:03:00,87.1,63.1,29.74,ESE,119,11.0,11.0,45,0.00,,,0.00,831,WeatherTracker,2013-07-28 22:03:00,
2013-07-28 15:08:00,87.1,63.1,29.74,SE,136,7.0,13.0,45,0.00,,,0.00,823,WeatherTracker,2013-07-28 22:08:00,
2013-07-28 15:13:00,86.7,62.8,29.74,SE,146,6.0,13.0,45,0.00,,,0.00,812,WeatherTracker,2013-07-28 22:13:00,
2013-07-28 15:18:00,86.7,63.4,29.74,ESE,121,9.0,13.0,46,0.00,,,0.00,803,WeatherTracker,2013-07-28 22:18:00,
2013-07-28 15:23:00,86.9,63.0,29.74,ESE,121,7.0,15.0,45,0.00,,,0.00,793,WeatherTracker,2013-07-28 22:23:00,
2013-07-28 15:28:00,86.8,62.9,29.73,ESE,104,7.0,17.0,45,0.00,,,0.00,780,WeatherTracker,2013-07-28 22:28:00,
2013-07-28 15:34:00,87.2,63.9,29.73,East,96,11.0,17.0,46,0.00,,,0.00,770,WeatherTracker,2013-07-28 22:34:00,
2013-07-28 15:39:00,87.5,63.5,29.73,ESE,117,5.0,13.0,45,0.00,,,0.00,759,WeatherTracker,2013-07-28 22:39:00,
2013-07-28 15:44:00,88.0,64.0,29.73,SE,142,5.0,13.0,45,0.00,,,0.00,752,WeatherTracker,2013-07-28 22:44:00,
2013-07-28 15:49:00,88.2,64.1,29.73,SE,136,2.0,13.0,45,0.00,,,0.00,742,WeatherTracker,2013-07-28 22:49:00,
2013-07-28 15:54:00,88.8,62.7,29.72,SE,143,9.0,12.0,42,0.00,,,0.00,729,WeatherTracker,2013-07-28 22:54:00,
2013-07-28 15:59:00,89.0,63.6,29.72,ESE,115,4.0,12.0,43,0.00,,,0.00,717,WeatherTracker,2013-07-28 22:59:00,
2013-07-28 16:04:00,89.2,64.4,29.72,ESE,112,7.0,12.0,44,0.00,,,0.00,703,WeatherTracker,2013-07-28 23:04:00,
2013-07-28 16:09:00,88.9,62.8,29.72,SE,133,9.0,12.0,42,0.00,,,0.00,696,WeatherTracker,2013-07-28 23:09:00,
2013-07-28 16:14:00,89.1,63.6,29.72,East,100,9.0,14.0,43,0.00,,,0.00,680,WeatherTracker,2013-07-28 23:14:00,
2013-07-28 16:19:00,89.4,63.9,29.72,ESE,103,9.0,14.0,43,0.00,,,0.00,666,WeatherTracker,2013-07-28 23:19:00,
2013-07-28 16:24:00,89.6,64.1,29.71,ESE,117,7.0,12.0,43,0.00,,,0.00,650,WeatherTracker,2013-07-28 23:24:00,
2013-07-28 16:29:00,89.9,63.7,29.71,SE,127,7.0,12.0,42,0.00,,,0.00,640,WeatherTracker,2013-07-28 23:29:00,
2013-07-28 16:35:00,90.1,63.9,29.71,ESE,117,6.0,12.0,42,0.00,,,0.00,624,WeatherTracker,2013-07-28 23:35:00,
2013-07-28 16:40:00,90.0,63.8,29.71,East,94,11.0,13.0,42,0.00,,,0.00,610,WeatherTracker,2013-07-28 23:40:00,
2013-07-28 16:45:00,89.6,63.4,29.71,ESE,117,9.0,14.0,42,0.00,,,0.00,598,WeatherTracker,2013-07-28 23:45:00,
2013-07-28 16:50:00,89.4,63.2,29.70,ESE,119,6.0,14.0,42,0.00,,,0.00,582,WeatherTracker,2013-07-28 23:50:00,
2013-07-28 16:55:00,89.5,64.0,29.70,ESE,103,7.0,13.0,43,0.00,,,0.00,570,WeatherTracker,2013-07-28 23:55:00,
2013-07-28 17:00:00,89.6,63.4,29.70,SE,130,6.0,12.0,42,0.00,,,0.00,554,WeatherTracker,2013-07-29 00:00:00,
2013-07-28 17:05:00,89.7,64.8,29.70,ESE,116,5.0,14.0,44,0.00,,,0.00,540,WeatherTracker,2013-07-29 00:05:00,
2013-07-28 17:10:00,89.7,63.5,29.70,ESE,115,7.0,14.0,42,0.00,,,0.00,527,WeatherTracker,2013-07-29 00:10:00,
2013-07-28 17:15:00,89.6,64.1,29.70,ESE,123,6.0,13.0,43,0.00,,,0.00,512,WeatherTracker,2013-07-29 00:15:00,
2013-07-28 17:20:00,89.4,63.9,29.70,East,96,9.0,12.0,43,0.00,,,0.00,496,WeatherTracker,2013-07-29 00:20:00,
2013-07-28 17:25:00,89.3,62.5,29.70,ESE,116,7.0,14.0,41,0.00,,,0.00,482,WeatherTracker,2013-07-29 00:25:00,
2013-07-28 17:30:00,89.0,63.6,29.70,ESE,105,7.0,14.0,43,0.00,,,0.00,466,WeatherTracker,2013-07-29 00:30:00,
2013-07-28 17:36:00,89.1,63.0,29.70,ESE,112,4.0,13.0,42,0.00,,,0.00,450,WeatherTracker,2013-07-29 00:36:00,
2013-07-28 17:41:00,88.6,63.2,29.70,ESE,112,6.0,13.0,43,0.00,,,0.00,436,WeatherTracker,2013-07-29 00:41:00,
2013-07-28 17:46:00,88.3,62.3,29.70,SE,127,9.0,13.0,42,0.00,,,0.00,417,WeatherTracker,2013-07-29 00:46:00,
2013-07-28 17:51:00,87.8,62.5,29.70,ESE,123,11.0,14.0,43,0.00,,,0.00,404,WeatherTracker,2013-07-29 00:51:00,
2013-07-28 17:56:00,87.1,61.2,29.70,SE,125,9.0,15.0,42,0.00,,,0.00,390,WeatherTracker,2013-07-29 00:56:00,
2013-07-28 18:01:00,86.5,62.0,29.70,East,96,8.0,15.0,44,0.00,,,0.00,373,WeatherTracker,2013-07-29 01:01:00,
2013-07-28 18:06:00,85.8,62.0,29.70,SE,132,5.0,14.0,45,0.00,,,0.00,360,WeatherTracker,2013-07-29 01:06:00,
2013-07-28 18:11:00,85.5,62.3,29.70,ESE,122,9.0,15.0,46,0.00,,,0.00,343,WeatherTracker,2013-07-29 01:11:00,
2013-07-28 18:16:00,85.2,62.0,29.70,ESE,116,8.0,15.0,46,0.00,,,0.00,329,WeatherTracker,2013-07-29 01:16:00,
2013-07-28 18:21:00,85.1,62.0,29.70,ESE,106,4.0,11.0,46,0.00,,,0.00,311,WeatherTracker,2013-07-29 01:21:00,
2013-07-28 18:26:00,84.9,61.8,29.70,ESE,111,6.0,11.0,46,0.00,,,0.00,295,WeatherTracker,2013-07-29 01:26:00,
2013-07-28 18:31:00,84.8,62.3,29.70,ESE,114,6.0,11.0,47,0.00,,,0.00,279,WeatherTracker,2013-07-29 01:31:00,
2013-07-28 18:37:00,84.3,61.8,29.69,ESE,114,8.0,9.0,47,0.00,,,0.00,258,WeatherTracker,2013-07-29 01:37:00,
2013-07-28 18:42:00,83.6,61.8,29.69,ESE,107,5.0,12.0,48,0.00,,,0.00,241,WeatherTracker,2013-07-29 01:42:00,
2013-07-28 18:47:00,83.6,61.2,29.69,ESE,116,4.0,12.0,47,0.00,,,0.00,218,WeatherTracker,2013-07-29 01:47:00,
2013-07-28 18:52:00,83.3,61.5,29.70,ESE,121,4.0,11.0,48,0.00,,,0.00,193,WeatherTracker,2013-07-29 01:52:00,
2013-07-28 18:57:00,83.3,61.5,29.69,ESE,123,5.0,9.0,48,0.00,,,0.00,174,WeatherTracker,2013-07-29 01:57:00,
2013-07-28 19:02:00,82.9,60.6,29.69,ESE,111,8.0,12.0,47,0.00,,,0.00,155,WeatherTracker,2013-07-29 02:02:00,
2013-07-28 19:07:00,82.3,60.6,29.69,ESE,107,4.0,12.0,48,0.00,,,0.00,44,WeatherTracker,2013-07-29 02:07:00,
2013-07-28 19:12:00,81.7,60.7,29.69,ESE,123,9.0,11.0,49,0.00,,,0.00,105,WeatherTracker,2013-07-29 02:12:00,
2013-07-28 19:18:00,80.8,60.4,29.69,SE,132,6.0,11.0,50,0.00,,,0.00,102,WeatherTracker,2013-07-29 02:18:00,
2013-07-28 19:23:00,80.2,60.4,29.70,ESE,118,4.0,11.0,51,0.00,,,0.00,46,WeatherTracker,2013-07-29 02:23:00,
2013-07-28 19:28:00,79.7,59.9,29.69,SSE,150,4.0,11.0,51,0.00,,,0.00,56,WeatherTracker,2013-07-29 02:28:00,
2013-07-28 19:33:00,79.5,60.3,29.70,SE,142,6.0,9.0,52,0.00,,,0.00,54,WeatherTracker,2013-07-29 02:33:00,
2013-07-28 19:38:00,79.4,59.7,29.70,SE,141,0.0,9.0,51,0.00,,,0.00,42,WeatherTracker,2013-07-29 02:38:00,
2013-07-28 19:43:00,79.1,58.3,29.70,SSE,159,5.0,13.0,49,0.00,,,0.00,32,WeatherTracker,2013-07-29 02:43:00,
2013-07-28 19:48:00,78.3,58.1,29.70,SSE,157,7.0,13.0,50,0.00,,,0.00,23,WeatherTracker,2013-07-29 02:48:00,
2013-07-28 19:53:00,77.4,57.3,29.70,SE,144,2.0,11.0,50,0.00,,,0.00,18,WeatherTracker,2013-07-29 02:53:00,
2013-07-28 19:58:00,76.2,56.7,29.70,SE,146,6.0,13.0,51,0.00,,,0.00,16,WeatherTracker,2013-07-29 02:58:00,
2013-07-28 20:03:00,75.1,56.3,29.70,SE,134,8.0,13.0,52,0.00,,,0.00,14,WeatherTracker,2013-07-29 03:03:00,
2013-07-28 20:08:00,73.9,55.7,29.70,ESE,118,5.0,9.0,53,0.00,,,0.00,11,WeatherTracker,2013-07-29 03:08:00,
2013-07-28 20:13:00,72.5,55.4,29.70,SSE,164,0.0,11.0,55,0.00,,,0.00,9,WeatherTracker,2013-07-29 03:13:00,
2013-07-28 20:18:00,71.9,55.3,29.70,SSE,167,7.0,11.0,56,0.00,,,0.00,5,WeatherTracker,2013-07-29 03:18:00,
2013-07-28 20:23:00,71.3,55.3,29.70,SSE,163,0.0,12.0,57,0.00,,,0.00,0,WeatherTracker,2013-07-29 03:23:00,
2013-07-28 20:28:00,70.8,54.8,29.70,SE,132,7.0,12.0,57,0.00,,,0.00,0,WeatherTracker,2013-07-29 03:28:00,
2013-07-28 20:34:00,70.2,54.7,29.70,South,171,5.0,9.0,58,0.00,,,0.00,0,WeatherTracker,2013-07-29 03:34:00,
2013-07-28 20:39:00,69.6,54.6,29.70,SSE,160,5.0,11.0,59,0.00,,,0.00,0,WeatherTracker,2013-07-29 03:39:00,
2013-07-28 20:44:00,69.3,54.8,29.70,SE,137,6.0,11.0,60,0.00,,,0.00,0,WeatherTracker,2013-07-29 03:44:00,
2013-07-28 20:49:00,69.0,54.5,29.70,SSE,153,6.0,11.0,60,0.00,,,0.00,0,WeatherTracker,2013-07-29 03:49:00,
2013-07-28 20:54:00,68.6,54.2,29.70,SE,136,0.0,9.0,60,0.00,,,0.00,0,WeatherTracker,2013-07-29 03:54:00,
2013-07-28 20:59:00,68.2,54.2,29.71,SE,140,2.0,11.0,61,0.00,,,0.00,0,WeatherTracker,2013-07-29 03:59:00,
2013-07-28 21:01:00,68.1,54.1,29.71,SE,140,1.0,11.0,61,0.00,,,0.00,0,WeatherTracker,2013-07-29 04:01:00,
2013-07-28 21:02:00,68.0,54.0,29.71,SE,141,6.0,11.0,61,0.00,,,0.00,0,WeatherTracker,2013-07-29 04:02:00,
2013-07-28 21:07:00,67.5,54.0,29.71,ESE,122,5.0,7.0,62,0.00,,,0.00,0,WeatherTracker,2013-07-29 04:07:00,
2013-07-28 21:12:00,67.1,53.6,29.71,SE,143,5.0,9.0,62,0.00,,,0.00,0,WeatherTracker,2013-07-29 04:12:00,
2013-07-28 21:17:00,66.8,53.8,29.71,SE,140,5.0,9.0,63,0.00,,,0.00,0,WeatherTracker,2013-07-29 04:17:00,
2013-07-28 21:22:00,66.4,53.8,29.71,SSE,148,5.0,9.0,64,0.00,,,0.00,0,WeatherTracker,2013-07-29 04:22:00,
2013-07-28 21:27:00,66.0,53.5,29.72,SE,130,4.0,11.0,64,0.00,,,0.00,0,WeatherTracker,2013-07-29 04:27:00,
2013-07-28 21:32:00,65.4,53.3,29.72,SE,128,0.0,11.0,65,0.00,,,0.00,0,WeatherTracker,2013-07-29 04:32:00,
2013-07-28 21:37:00,64.8,53.2,29.72,SE,126,4.0,8.0,66,0.00,,,0.00,0,WeatherTracker,2013-07-29 04:37:00,
2013-07-28 21:42:00,64.4,53.2,29.72,SE,127,7.0,8.0,67,0.00,,,0.00,0,WeatherTracker,2013-07-29 04:42:00,
2013-07-28 21:47:00,64.1,53.3,29.72,ESE,112,4.0,8.0,68,0.00,,,0.00,0,WeatherTracker,2013-07-29 04:47:00,
2013-07-28 21:52:00,63.9,53.1,29.72,ESE,113,2.0,7.0,68,0.00,,,0.00,0,WeatherTracker,2013-07-29 04:52:00,
2013-07-28 21:57:00,63.5,52.7,29.72,ESE,113,0.0,6.0,68,0.00,,,0.00,0,WeatherTracker,2013-07-29 04:57:00,
2013-07-28 22:02:00,63.2,52.9,29.72,ESE,110,4.0,6.0,69,0.00,,,0.00,0,WeatherTracker,2013-07-29 05:02:00,
2013-07-28 22:07:00,62.9,53.0,29.72,ESE,109,2.0,6.0,70,0.00,,,0.00,0,WeatherTracker,2013-07-29 05:07:00,
2013-07-28 22:12:00,62.8,52.9,29.72,ESE,111,4.0,7.0,70,0.00,,,0.00,0,WeatherTracker,2013-07-29 05:12:00,
2013-07-28 22:17:00,62.5,52.6,29.73,ESE,111,4.0,7.0,70,0.00,,,0.00,0,WeatherTracker,2013-07-29 05:17:00,
2013-07-28 22:22:00,62.3,52.8,29.73,ESE,110,4.0,7.0,71,0.00,,,0.00,0,WeatherTracker,2013-07-29 05:22:00,
2013-07-28 22:27:00,62.1,53.0,29.73,ESE,107,2.0,7.0,72,0.00,,,0.00,0,WeatherTracker,2013-07-29 05:27:00,
2013-07-28 22:32:00,61.7,53.0,29.73,ESE,105,1.0,6.0,73,0.00,,,0.00,0,WeatherTracker,2013-07-29 05:32:00,
2013-07-28 22:37:00,61.4,53.0,29.73,East,100,2.0,6.0,74,0.00,,,0.00,0,WeatherTracker,2013-07-29 05:37:00,
2013-07-28 22:42:00,60.8,52.8,29.73,ESE,104,4.0,7.0,75,0.00,,,0.00,0,WeatherTracker,2013-07-29 05:42:00,
2013-07-28 22:47:00,60.7,52.7,29.73,East,98,0.0,9.0,75,0.00,,,0.00,0,WeatherTracker,2013-07-29 05:47:00,
2013-07-28 22:52:00,60.4,52.4,29.73,East,101,6.0,9.0,75,0.00,,,0.00,0,WeatherTracker,2013-07-29 05:52:00,
2013-07-28 22:58:00,60.3,52.7,29.73,ESE,102,5.0,8.0,76,0.00,,,0.00,0,WeatherTracker,2013-07-29 05:58:00,
2013-07-28 23:03:00,60.0,52.4,29.73,ESE,103,8.0,8.0,76,0.00,,,0.00,0,WeatherTracker,2013-07-29 06:03:00,
2013-07-28 23:08:00,60.0,52.4,29.73,East,96,6.0,8.0,76,0.00,,,0.00,0,WeatherTracker,2013-07-29 06:08:00,
2013-07-28 23:13:00,59.9,52.3,29.74,East,100,6.0,9.0,76,0.00,,,0.00,0,WeatherTracker,2013-07-29 06:13:00,
2013-07-28 23:18:00,59.9,52.3,29.73,East,99,5.0,9.0,76,0.00,,,0.00,0,WeatherTracker,2013-07-29 06:18:00,
2013-07-28 23:23:00,59.7,52.5,29.73,ESE,104,5.0,8.0,77,0.00,,,0.00,0,WeatherTracker,2013-07-29 06:23:00,
2013-07-28 23:28:00,59.5,52.3,29.73,ESE,105,4.0,9.0,77,0.00,,,0.00,0,WeatherTracker,2013-07-29 06:28:00,
2013-07-28 23:33:00,59.4,52.2,29.73,East,96,7.0,9.0,77,0.00,,,0.00,0,WeatherTracker,2013-07-29 06:33:00,
2013-07-28 23:38:00,59.3,52.1,29.74,ESE,108,6.0,8.0,77,0.00,,,0.00,0,WeatherTracker,2013-07-29 06:38:00,
2013-07-28 23:43:00,59.0,52.1,29.74,ESE,118,4.0,9.0,78,0.00,,,0.00,0,WeatherTracker,2013-07-29 06:43:00,
2013-07-28 23:48:00,59.0,52.1,29.74,ESE,123,5.0,12.0,78,0.00,,,0.00,0,WeatherTracker,2013-07-29 06:48:00,
2013-07-28 23:53:00,59.0,52.1,29.74,ESE,113,5.0,12.0,78,0.00,,,0.00,0,WeatherTracker,2013-07-29 06:53:00,
2013-07-28 23:58:00,59.0,52.5,29.74,SE,124,9.0,11.0,79,0.00,,,0.00,0,WeatherTracker,2013-07-29 06:58:00,